EW9904 Weather Reports


time (UTC)temp
F
wind
direction
speed
knots
gust
knots
rain 1hr
in
rain 24hr
in
rain mn
in
humidity
%
barometer
mb
20260504214004 74 232 2.6 7.8 0.00 0.00 0.00 37 1011.0
20260504213504 74 248 3.5 8.7 0.00 0.00 0.00 37 1011.1
20260504212504 75 186 3.5 8.7 0.00 0.00 0.00 35 1011.1
20260504212005 75 214 3.5 10.4 0.00 0.00 0.00 35 1011.0
20260504211505 75 335 3.5 11.3 0.00 0.00 0.00 34 1011.1
20260504210504 75 209 3.5 12.2 0.00 0.00 0.00 35 1011.1
20260504210009 76 252 3.5 9.6 0.00 0.00 0.00 36 1011.1
20260504205504 75 199 3.5 8.7 0.00 0.00 0.00 34 1011.1
20260504205004 76 242 3.5 7.0 0.00 0.00 0.00 36 1011.1
20260504204504 75 269 3.5 7.8 0.00 0.00 0.00 37 1011.2
20260504204005 75 226 3.5 7.8 0.00 0.00 0.00 34 1011.1
20260504203004 75 236 2.6 9.6 0.00 0.00 0.00 35 1011.2
20260504202504 76 205 2.6 7.8 0.00 0.00 0.00 34 1011.3
20260504201505 76 212 3.5 7.0 0.00 0.00 0.00 36 1011.4
20260504201005 75 255 3.5 7.8 0.00 0.00 0.00 37 1011.4
20260504200505 75 227 2.6 10.4 0.00 0.00 0.00 35 1011.4
20260504200004 76 302 2.6 7.0 0.00 0.00 0.00 35 1011.4
20260504195503 76 246 2.6 7.0 0.00 0.00 0.00 36 1011.5
20260504195004 75 283 2.6 7.8 0.00 0.00 0.00 40 1011.5
20260504194503 76 257 2.6 8.7 0.00 0.00 0.00 36 1011.6
20260504193504 76 287 3.5 10.4 0.00 0.00 0.00 37 1011.6
20260504192502 77 258 2.6 7.8 0.00 0.00 0.00 37 1011.7
20260504192004 75 217 3.5 8.7 0.00 0.00 0.00 36 1011.8
20260504191503 76 287 3.5 8.7 0.00 0.00 0.00 37 1011.9
20260504191004 75 153 2.6 7.0 0.00 0.00 0.00 37 1011.9
20260504190504 76 300 3.5 7.8 0.00 0.00 0.00 36 1012.0
20260504190008 75 259 3.5 7.8 0.00 0.00 0.00 34 1012.0
20260504185503 75 313 3.5 8.7 0.00 0.00 0.00 34 1012.2
20260504184503 75 5 2.6 11.3 0.00 0.00 0.00 37 1012.2
20260504183503 76 233 2.6 7.0 0.00 0.00 0.00 35 1012.3
20260504183005 75 186 2.6 9.6 0.00 0.00 0.00 34 1012.3
20260504182502 76 244 2.6 9.6 0.00 0.00 0.00 37 1012.4
20260504182004 76 335 2.6 7.8 0.00 0.00 0.00 41 1012.3
20260504181503 75 312 3.5 11.3 0.00 0.00 0.00 35 1012.5
20260504180504 75 336 2.6 7.0 0.00 0.00 0.00 34 1012.7
20260504175503 75 329 1.7 7.0 0.00 0.00 0.00 36 1012.6
20260504175005 75 331 2.6 9.6 0.00 0.00 0.00 37 1012.7
20260504174504 75 327 2.6 9.6 0.00 0.00 0.00 39 1012.8
20260504174005 75 281 2.6 9.6 0.00 0.00 0.00 38 1012.8
20260504173503 74 320 2.6 7.0 0.00 0.00 0.00 37 1012.8
20260504173004 74 235 2.6 7.0 0.00 0.00 0.00 40 1012.9
20260504172004 74 261 4.3 9.6 0.00 0.00 0.00 35 1013.1
20260504171504 74 261 2.6 9.6 0.00 0.00 0.00 39 1013.2
20260504171005 74 236 2.6 7.8 0.00 0.00 0.00 35 1013.1
20260504170502 74 292 3.5 13.0 0.00 0.00 0.00 35 1013.3
20260504150503 70 250 2.6 9.6 0.00 0.00 0.00 54 1014.3
20260504140503 66 321 3.5 8.7 0.00 0.00 0.00 55 1014.8
20260504130503 62 196 3.5 7.8 0.00 0.00 0.00 65 1015.5
20260504110502 52 209 1.7 7.8 0.00 0.00 0.00 78 1016.4
20260504100501 51 245 0.9 3.5 0.00 0.00 0.00 78 1016.1
20260504082002 50 187 1.7 4.3 0.00 0.00 0.00 76 1016.4
20260504080501 49 244 0.9 4.3 0.00 0.00 0.00 76 1016.5
20260504050500 47 246 0.9 4.3 0.00 0.00 0.00 65 1016.4
20260504050006 47 250 0.9 1.7 0.00 0.00 0.00 65 1016.4
20260504045005 47 250 0.9 3.5 0.00 0.00 0.00 66 1016.3
20260504044005 47 250 0.9 4.3 0.00 0.00 0.00 65 1016.3
20260504043505 47 250 0.9 4.3 0.00 0.00 0.00 65 1016.3
20260504043007 47 227 0.9 3.5 0.00 0.00 0.00 65 1016.4
20260504042504 47 228 0.9 3.5 0.00 0.00 0.00 66 1016.2
20260504041506 48 228 0.9 4.3 0.00 0.00 0.00 65 1016.1
20260504041006 48 228 0.9 4.3 0.00 0.00 0.00 64 1016.1
20260504040506 48 236 0.9 2.6 0.00 0.00 0.00 63 1016.0
20260504035505 48 236 0.9 4.3 0.00 0.00 0.00 64 1015.9
20260504035005 48 236 0.9 4.3 0.00 0.00 0.00 65 1015.9
20260504034505 48 202 0.9 3.5 0.00 0.00 0.00 64 1015.9
20260504034005 48 207 0.9 5.2 0.00 0.00 0.00 64 1015.8
20260504033506 48 205 0.9 5.2 0.00 0.00 0.00 63 1015.7
20260504033007 48 236 0.9 3.5 0.00 0.00 0.00 63 1015.7
20260504032507 48 236 0.9 1.7 0.00 0.00 0.00 63 1015.7
20260504031505 48 236 0.9 2.6 0.00 0.00 0.00 64 1015.7
20260504031006 48 236 0.9 2.6 0.00 0.00 0.00 64 1015.7
20260504030505 48 236 0.9 3.5 0.00 0.00 0.00 64 1015.7
20260504030006 47 236 0.9 3.5 0.00 0.00 0.00 65 1015.7
20260504025006 47 263 0.9 2.6 0.00 0.00 0.00 66 1015.7
20260504024504 46 265 0.9 2.6 0.00 0.00 0.00 66 1015.7
20260504024004 45 344 0.0 1.7 0.00 0.00 0.00 68 1015.7
20260504023005 45 344 0.0 0.9 0.00 0.00 0.00 69 1015.7
20260504022504 45 344 0.0 0.9 0.00 0.00 0.00 70 1015.7
20260504022006 45 344 0.0 1.7 0.00 0.00 0.00 69 1015.7
20260504021505 45 344 0.0 1.7 0.00 0.00 0.00 66 1015.7
20260504020008 45 344 0.0 1.7 0.00 0.00 0.00 67 1015.6
20260504015504 46 344 0.0 0.9 0.00 0.00 0.00 68 1015.5
20260504015006 46 344 0.0 0.9 0.00 0.00 0.00 65 1015.5
20260504014504 47 344 0.9 1.7 0.00 0.00 0.00 66 1015.5
20260504014005 47 344 0.0 1.7 0.00 0.00 0.00 64 1015.5
20260504013504 47 344 0.0 0.9 0.00 0.00 0.00 64 1015.4
20260504013006 47 344 0.9 1.7 0.00 0.00 0.00 64 1015.3
20260504012005 47 344 0.0 1.7 0.00 0.00 0.00 64 1015.3
20260504011005 48 344 0.0 0.9 0.00 0.00 0.00 64 1015.2
20260504010504 49 344 0.0 0.9 0.00 0.00 0.00 63 1015.2
20260504010006 49 344 0.0 0.9 0.00 0.00 0.00 61 1015.1
20260504005503 49 344 0.0 0.9 0.00 0.00 0.00 61 1015.1
20260504005004 50 344 0.9 1.7 0.00 0.00 0.00 60 1015.0
20260504004504 50 344 0.9 1.7 0.00 0.00 0.00 60 1015.0
20260504004004 50 344 0.0 0.9 0.00 0.00 0.00 57 1015.0
20260504003503 50 344 0.0 0.9 0.00 0.00 0.00 58 1014.8
20260504003005 50 344 0.0 0.9 0.00 0.00 0.00 58 1014.7
20260504002503 51 344 0.0 1.7 0.00 0.00 0.00 55 1014.6
20260504002004 51 344 0.0 2.6 0.00 0.00 0.00 55 1014.5
20260504001504 51 344 0.0 2.6 0.00 0.00 0.00 56 1014.5
20260504001004 52 344 0.0 1.7 0.00 0.00 0.00 52 1014.5
20260503235503 54 344 0.0 0.9 0.00 0.00 0.00 48 1014.4
20260503235004 55 344 0.0 0.9 0.00 0.00 0.00 47 1014.4
20260503234503 55 344 0.9 2.6 0.00 0.00 0.00 44 1014.4
20260503234005 56 346 0.9 5.2 0.00 0.00 0.00 45 1014.3
20260503233504 56 346 0.9 5.2 0.00 0.00 0.00 45 1014.4
20260503233006 57 351 1.7 5.2 0.00 0.00 0.00 43 1014.3
20260503232503 57 355 1.7 5.2 0.00 0.00 0.00 44 1014.3
20260503232004 57 349 1.7 4.3 0.00 0.00 0.00 43 1014.3
20260503231504 57 349 2.6 7.8 0.00 0.00 0.00 43 1014.2
20260503231004 58 265 2.6 10.4 0.00 0.00 0.00 42 1014.2
20260503230006 58 320 1.7 7.0 0.00 0.00 0.00 43 1014.1
20260503225503 58 338 2.6 7.0 0.00 0.00 0.00 40 1014.1
20260503225005 58 309 2.6 11.3 0.00 0.00 0.00 41 1014.0
20260503224503 58 346 3.5 11.3 0.00 0.00 0.00 40 1014.1
20260503224004 58 329 3.5 11.3 0.00 0.00 0.00 41 1014.0
20260503223504 58 312 3.5 13.0 0.00 0.00 0.00 40 1014.1
20260503223005 58 297 5.2 14.8 0.00 0.00 0.00 39 1014.0
20260503222004 59 286 6.1 13.0 0.00 0.00 0.00 38 1013.9
20260503221503 59 341 6.1 15.6 0.00 0.00 0.00 39 1014.1
20260503221004 59 336 6.1 15.6 0.00 0.00 0.00 39 1014.1
20260503220008 59 307 6.1 16.5 0.00 0.00 0.00 38 1014.2
20260503215004 59 219 3.5 14.8 0.00 0.00 0.00 38 1014.0
20260503214503 59 321 5.2 14.8 0.00 0.00 0.00 39 1014.0